Location: Betz
(49.1556°N, 2.9558°E)
Time: 14:08:06
(UTC+00:00)

ADEOS Rocket - Pass Details

Date: 18 September 2019
Orbit: 859 x 1306 km, 98.7° (Epoch: 22 October)

Event Time Altitude Azimuth Distance (km) Brightness Sun altitude
Rises 18:28:06 0° 22° (NNE) 4,056 6.1 -6.1°
Reaches altitude 10° 18:31:15 10° 36° (NE) 3,154 5.4 -6.6°
Maximum altitude 18:37:07 25° 89° (E) 2,296 4.4 -7.6°
Drops below altitude 10° 18:43:12 10° 142° (SE) 3,300 5.3 -8.5°
Sets 18:46:33 0° 155° (SSE) 4,282 6.0 -9.1°
